sat.trackr.live / text

‹ back to catalog

STARLINK-32350

NORAD 61063 · 2024-164P

PAYLOAD ACTIVE UNKNOWN

§ Identity

Operator
Country
US
Launch date
2024-09-13
Launch site
AFWTR
Launch vehicle
Mass (kg)
RCS (m²)

Purposes: comms

External: N2YO · Heavens-Above · Gunter

§ Orbital elements

Epoch: 2026-09-20T07:15:24.075072Z

Period
94.01 min
Inclination
53.1603°
Eccentricity
0.0001291
Mean motion
15.31707457 rev/d
Perigee alt
469.8 km
Apogee alt
471.6 km
Semi-major
6,848.9 km
B*
4.6767e-5
RAAN
265.7461°
Arg perigee
89.3940°
Mean anomaly
270.7209°
Rev number
11,329

§ Raw data

STARLINK-323501 61063U 24164P   26263.30236198  .00001087  00000+0  46767-4 0  99932 61063  53.1603 265.7461 0001291  89.3940 270.7209 15.31707457113296

JSON: /api/v1/satellites/61063 · /tle

For live sub-satellite position, see the globe view (requires WebGL).

§ Visibility from observer

Set your observer location to see the next 7 days of passes ≥ 10°. The values pass through the URL so the page stays shareable.

No JS? Fill the form by hand. The geolocation button needs JavaScript.